WXM80 ListenWXM80 Stop

You find our weather info also at:

UK Metoffice

WeatherCloud

Weather Underground

Northeastern Weather Network

AWEKAS

Citizen Weather Observer Program (CWOP)

HAMweather, WeatherForYou, PWS Weather


Weather Underground History page Text

Daily Summary for October 19, 2017 Units:  Both    English   Metric
« Previous Day
Next Day »
Daily Weekly Monthly Yearly Custom
  High: Low: Average:
Temperature: 74.1 °F /  23.4 °C 52.1 °F /  11.2 °C 61.3 °F /  16.3 °C
Dew Point: 56.1 °F /  13.4 °C 48.5 °F /  9.2 °C 51.7 °F /  10.9 °C
Humidity: 89 % 42 % 73 %
Wind Speed: 8.2 mph /  13.2 km/h - 1.4 mph /  2.3 km/h
Wind Gust: 13.8 mph /  22.2 km/h - -
Wind:- - SW
Pressure: 30.27 in /  1024.9 hPa 30.06 in /  1017.8 hPa -
Precipitation: 0.00 in /  0 mm    
Historical Graphs
 
 
Tabular Data for October 19, 2017
Time Temperature Dew Point Pressure Wind Wind Speed Wind Gust Humidity Rainfall Rate (Hourly)
00:02 59.1 °F /  15.1 °C 53.3 °F /  11.8 °C 30.26 in /  1024.6 hPa SSW 2.2 mph /  3.5 km/h 3.5 mph /  5.6 km/h 81 % 0.00 in /  0 mm
00:07 59.1 °F /  15.1 °C 53.3 °F /  11.8 °C 30.26 in /  1024.6 hPa WSW 0.1 mph /  0.2 km/h 1.2 mph /  1.9 km/h 81 % 0.00 in /  0 mm
00:12 59.1 °F /  15.1 °C 52.9 °F /  11.6 °C 30.26 in /  1024.6 hPa WSW 1.0 mph /  1.6 km/h 3.5 mph /  5.6 km/h 80 % 0.00 in /  0 mm
00:17 59.1 °F /  15.1 °C 52.9 °F /  11.6 °C 30.26 in /  1024.6 hPa WSW 1.0 mph /  1.6 km/h 6.9 mph /  11.1 km/h 80 % 0.00 in /  0 mm
00:22 59.1 °F /  15.1 °C 52.9 °F /  11.6 °C 30.26 in /  1024.6 hPa WSW 1.5 mph /  2.4 km/h 4.6 mph /  7.4 km/h 80 % 0.00 in /  0 mm
00:27 59.1 °F /  15.1 °C 52.9 °F /  11.6 °C 30.26 in /  1024.6 hPa West 4.0 mph /  6.4 km/h 5.8 mph /  9.3 km/h 80 % 0.00 in /  0 mm
00:32 59.1 °F /  15.1 °C 52.6 °F /  11.4 °C 30.26 in /  1024.6 hPa WSW 2.5 mph /  4 km/h 5.8 mph /  9.3 km/h 79 % 0.00 in /  0 mm
00:37 59.1 °F /  15.1 °C 52.6 °F /  11.4 °C 30.26 in /  1024.6 hPa WNW 3.1 mph /  5 km/h 5.8 mph /  9.3 km/h 79 % 0.00 in /  0 mm
00:42 59.1 °F /  15.1 °C 52.6 °F /  11.4 °C 30.25 in /  1024.3 hPa West 2.9 mph /  4.7 km/h 6.9 mph /  11.1 km/h 79 % 0.00 in /  0 mm
00:47 59.1 °F /  15.1 °C 52.2 °F /  11.2 °C 30.26 in /  1024.6 hPa WSW 2.8 mph /  4.5 km/h 5.8 mph /  9.3 km/h 78 % 0.00 in /  0 mm
00:52 59.1 °F /  15.1 °C 52.2 °F /  11.2 °C 30.26 in /  1024.6 hPa SW 1.5 mph /  2.4 km/h 8.0 mph /  12.9 km/h 78 % 0.00 in /  0 mm
00:57 59.1 °F /  15.1 °C 52.2 °F /  11.2 °C 30.26 in /  1024.6 hPa SW 2.6 mph /  4.2 km/h 4.0 mph /  6.4 km/h 78 % 0.00 in /  0 mm
01:02 59.0 °F /  15 °C 52.1 °F /  11.2 °C 30.26 in /  1024.6 hPa SSW 1.3 mph /  2.1 km/h 3.5 mph /  5.6 km/h 78 % 0.00 in /  0 mm
01:08 58.9 °F /  14.9 °C 52.1 °F /  11.2 °C 30.26 in /  1024.6 hPa SSW 0.5 mph /  0.8 km/h 2.3 mph /  3.7 km/h 78 % 0.00 in /  0 mm
01:12 58.9 °F /  14.9 °C 52.1 °F /  11.2 °C 30.26 in /  1024.6 hPa WSW 1.9 mph /  3.1 km/h 2.3 mph /  3.7 km/h 78 % 0.00 in /  0 mm
01:17 58.7 °F /  14.8 °C 52.2 °F /  11.2 °C 30.26 in /  1024.6 hPa WSW 0.7 mph /  1.1 km/h 1.2 mph /  1.9 km/h 79 % 0.00 in /  0 mm
01:28 58.5 °F /  14.7 °C 52.0 °F /  11.1 °C 30.26 in /  1024.6 hPa SW 0.5 mph /  0.8 km/h 1.2 mph /  1.9 km/h 79 % 0.00 in /  0 mm
01:33 58.4 °F /  14.7 °C 51.9 °F /  11.1 °C 30.26 in /  1024.6 hPa Calm   3.5 mph /  5.6 km/h 79 % 0.00 in /  0 mm
01:38 58.2 °F /  14.6 °C 51.7 °F /  10.9 °C 30.26 in /  1024.6 hPa SW 0.5 mph /  0.8 km/h 2.3 mph /  3.7 km/h 79 % 0.00 in /  0 mm
01:43 58.1 °F /  14.5 °C 51.6 °F /  10.9 °C 30.26 in /  1024.6 hPa SW 0.3 mph /  0.5 km/h 2.3 mph /  3.7 km/h 79 % 0.00 in /  0 mm
01:48 57.9 °F /  14.4 °C 51.4 °F /  10.8 °C 30.26 in /  1024.6 hPa SSW 1.6 mph /  2.6 km/h 3.5 mph /  5.6 km/h 79 % 0.00 in /  0 mm
01:53 57.8 °F /  14.3 °C 51.3 °F /  10.7 °C 30.25 in /  1024.3 hPa SSW 0.3 mph /  0.5 km/h 1.2 mph /  1.9 km/h 79 % 0.00 in /  0 mm
01:58 57.6 °F /  14.2 °C 51.1 °F /  10.6 °C 30.25 in /  1024.3 hPa WSW 1.5 mph /  2.4 km/h 3.5 mph /  5.6 km/h 79 % 0.00 in /  0 mm
02:03 57.4 °F /  14.1 °C 51.3 °F /  10.7 °C 30.25 in /  1024.3 hPa WSW 0.6 mph /  1 km/h 1.2 mph /  1.9 km/h 80 % 0.00 in /  0 mm
02:08 57.2 °F /  14 °C 51.1 °F /  10.6 °C 30.26 in /  1024.6 hPa WSW 0.3 mph /  0.5 km/h 2.3 mph /  3.7 km/h 80 % 0.00 in /  0 mm
02:13 57.1 °F /  13.9 °C 51.0 °F /  10.6 °C 30.25 in /  1024.3 hPa WSW 1.1 mph /  1.8 km/h 2.3 mph /  3.7 km/h 80 % 0.00 in /  0 mm
02:18 57.0 °F /  13.9 °C 50.9 °F /  10.5 °C 30.25 in /  1024.3 hPa WSW 0.4 mph /  0.6 km/h 2.0 mph /  3.2 km/h 80 % 0.00 in /  0 mm
02:23 56.9 °F /  13.8 °C 50.8 °F /  10.4 °C 30.25 in /  1024.3 hPa WSW 0.4 mph /  0.6 km/h 2.3 mph /  3.7 km/h 80 % 0.00 in /  0 mm
02:28 56.8 °F /  13.8 °C 50.7 °F /  10.4 °C 30.25 in /  1024.3 hPa Calm   1.2 mph /  1.9 km/h 80 % 0.00 in /  0 mm
02:33 56.7 °F /  13.7 °C 50.6 °F /  10.3 °C 30.25 in /  1024.3 hPa SW 0.5 mph /  0.8 km/h 2.3 mph /  3.7 km/h 80 % 0.00 in /  0 mm
02:38 56.6 °F /  13.7 °C 50.5 °F /  10.3 °C 30.25 in /  1024.3 hPa SW 0.3 mph /  0.5 km/h 2.3 mph /  3.7 km/h 80 % 0.00 in /  0 mm
02:43 56.4 °F /  13.6 °C 50.3 °F /  10.2 °C 30.25 in /  1024.3 hPa SW 0.4 mph /  0.6 km/h 2.3 mph /  3.7 km/h 80 % 0.00 in /  0 mm
02:48 56.3 °F /  13.5 °C 50.2 °F /  10.1 °C 30.25 in /  1024.3 hPa Calm     80 % 0.00 in /  0 mm
02:53 56.2 °F /  13.4 °C 50.1 °F /  10.1 °C 30.25 in /  1024.3 hPa Calm     80 % 0.00 in /  0 mm
02:58 56.0 °F /  13.3 °C 49.9 °F /  9.9 °C 30.25 in /  1024.3 hPa SW 1.9 mph /  3.1 km/h 3.5 mph /  5.6 km/h 80 % 0.00 in /  0 mm
03:03 55.8 °F /  13.2 °C 49.7 °F /  9.8 °C 30.25 in /  1024.3 hPa West 0.6 mph /  1 km/h 2.3 mph /  3.7 km/h 80 % 0.00 in /  0 mm
03:08 55.7 °F /  13.2 °C 49.6 °F /  9.8 °C 30.25 in /  1024.3 hPa West 0.5 mph /  0.8 km/h 2.3 mph /  3.7 km/h 80 % 0.00 in /  0 mm
03:13 55.6 °F /  13.1 °C 49.9 °F /  9.9 °C 30.25 in /  1024.3 hPa West 0.1 mph /  0.2 km/h 1.2 mph /  1.9 km/h 81 % 0.00 in /  0 mm
03:18 55.5 °F /  13.1 °C 49.8 °F /  9.9 °C 30.24 in /  1023.9 hPa West 0.1 mph /  0.2 km/h 1.2 mph /  1.9 km/h 81 % 0.00 in /  0 mm
03:24 55.4 °F /  13 °C 49.7 °F /  9.8 °C 30.24 in /  1023.9 hPa Calm     81 % 0.00 in /  0 mm
03:29 55.3 °F /  12.9 °C 49.6 °F /  9.8 °C 30.24 in /  1023.9 hPa Calm     81 % 0.00 in /  0 mm
03:34 55.2 °F /  12.9 °C 49.5 °F /  9.7 °C 30.24 in /  1023.9 hPa Calm   1.2 mph /  1.9 km/h 81 % 0.00 in /  0 mm
03:39 55.1 °F /  12.8 °C 49.4 °F /  9.7 °C 30.24 in /  1023.9 hPa Calm     81 % 0.00 in /  0 mm
03:44 54.9 °F /  12.7 °C 49.2 °F /  9.6 °C 30.24 in /  1023.9 hPa Calm     81 % 0.00 in /  0 mm
03:49 54.8 °F /  12.7 °C 49.1 °F /  9.5 °C 30.24 in /  1023.9 hPa Calm     81 % 0.00 in /  0 mm
03:54 54.7 °F /  12.6 °C 49.3 °F /  9.6 °C 30.24 in /  1023.9 hPa Calm     82 % 0.00 in /  0 mm
04:00 54.6 °F /  12.6 °C 49.2 °F /  9.6 °C 30.24 in /  1023.9 hPa WSW 0.3 mph /  0.5 km/h 2.3 mph /  3.7 km/h 82 % 0.00 in /  0 mm
04:05 54.4 °F /  12.4 °C 49.3 °F /  9.6 °C 30.24 in /  1023.9 hPa Calm   1.0 mph /  1.6 km/h 83 % 0.00 in /  0 mm
04:10 54.3 °F /  12.4 °C 49.2 °F /  9.6 °C 30.24 in /  1023.9 hPa West 1.1 mph /  1.8 km/h 2.3 mph /  3.7 km/h 83 % 0.00 in /  0 mm
04:15 54.2 °F /  12.3 °C 49.1 °F /  9.5 °C 30.24 in /  1023.9 hPa Calm   1.2 mph /  1.9 km/h 83 % 0.00 in /  0 mm
04:20 54.1 °F /  12.3 °C 49.4 °F /  9.7 °C 30.24 in /  1023.9 hPa SW 0.8 mph /  1.3 km/h 3.5 mph /  5.6 km/h 84 % 0.00 in /  0 mm
04:25 54.1 °F /  12.3 °C 49.7 °F /  9.8 °C 30.24 in /  1023.9 hPa West 0.3 mph /  0.5 km/h 1.2 mph /  1.9 km/h 85 % 0.00 in /  0 mm
04:30 54.1 °F /  12.3 °C 49.7 °F /  9.8 °C 30.24 in /  1023.9 hPa West 0.2 mph /  0.3 km/h 3.5 mph /  5.6 km/h 85 % 0.00 in /  0 mm
04:35 54.1 °F /  12.3 °C 50.0 °F /  10 °C 30.24 in /  1023.9 hPa Calm   1.2 mph /  1.9 km/h 86 % 0.00 in /  0 mm
04:40 54.1 °F /  12.3 °C 50.0 °F /  10 °C 30.24 in /  1023.9 hPa Calm     86 % 0.00 in /  0 mm
04:45 54.0 °F /  12.2 °C 49.6 °F /  9.8 °C 30.24 in /  1023.9 hPa Calm     85 % 0.00 in /  0 mm
04:50 53.9 °F /  12.2 °C 49.5 °F /  9.7 °C 30.24 in /  1023.9 hPa Calm     85 % 0.00 in /  0 mm
04:55 53.9 °F /  12.2 °C 49.5 °F /  9.7 °C 30.24 in /  1023.9 hPa Calm     85 % 0.00 in /  0 mm
05:00 53.8 °F /  12.1 °C 49.4 °F /  9.7 °C 30.24 in /  1023.9 hPa Calm     85 % 0.00 in /  0 mm
05:05 53.7 °F /  12.1 °C 49.3 °F /  9.6 °C 30.24 in /  1023.9 hPa Calm     85 % 0.00 in /  0 mm
05:10 53.6 °F /  12 °C 48.9 °F /  9.4 °C 30.24 in /  1023.9 hPa Calm     84 % 0.00 in /  0 mm
05:15 53.5 °F /  11.9 °C 48.8 °F /  9.3 °C 30.24 in /  1023.9 hPa Calm     84 % 0.00 in /  0 mm
05:21 53.5 °F /  11.9 °C 48.8 °F /  9.3 °C 30.24 in /  1023.9 hPa Calm     84 % 0.00 in /  0 mm
05:26 53.3 °F /  11.8 °C 48.9 °F /  9.4 °C 30.24 in /  1023.9 hPa Calm     85 % 0.00 in /  0 mm
05:31 53.2 °F /  11.8 °C 48.8 °F /  9.3 °C 30.25 in /  1024.3 hPa Calm     85 % 0.00 in /  0 mm
05:36 53.2 °F /  11.8 °C 48.8 °F /  9.3 °C 30.25 in /  1024.3 hPa Calm   1.0 mph /  1.6 km/h 85 % 0.00 in /  0 mm
05:41 53.0 °F /  11.7 °C 48.9 °F /  9.4 °C 30.25 in /  1024.3 hPa Calm     86 % 0.00 in /  0 mm
05:46 53.0 °F /  11.7 °C 48.9 °F /  9.4 °C 30.25 in /  1024.3 hPa Calm   1.0 mph /  1.6 km/h 86 % 0.00 in /  0 mm
05:51 52.8 °F /  11.6 °C 48.7 °F /  9.3 °C 30.25 in /  1024.3 hPa Calm   1.0 mph /  1.6 km/h 86 % 0.00 in /  0 mm
05:56 52.8 °F /  11.6 °C 48.7 °F /  9.3 °C 30.25 in /  1024.3 hPa Calm     86 % 0.00 in /  0 mm
06:01 52.7 °F /  11.5 °C 48.6 °F /  9.2 °C 30.25 in /  1024.3 hPa Calm     86 % 0.00 in /  0 mm
06:06 52.6 °F /  11.4 °C 48.5 °F /  9.2 °C 30.25 in /  1024.3 hPa Calm   1.2 mph /  1.9 km/h 86 % 0.00 in /  0 mm
06:11 52.5 °F /  11.4 °C 48.7 °F /  9.3 °C 30.24 in /  1023.9 hPa Calm     87 % 0.00 in /  0 mm
06:16 52.4 °F /  11.3 °C 48.6 °F /  9.2 °C 30.25 in /  1024.3 hPa Calm     87 % 0.00 in /  0 mm
06:21 52.4 °F /  11.3 °C 48.6 °F /  9.2 °C 30.24 in /  1023.9 hPa Calm     87 % 0.00 in /  0 mm
06:26 52.3 °F /  11.3 °C 48.5 °F /  9.2 °C 30.24 in /  1023.9 hPa SW 1.3 mph /  2.1 km/h 3.5 mph /  5.6 km/h 87 % 0.00 in /  0 mm
06:31 52.3 °F /  11.3 °C 48.9 °F /  9.4 °C 30.24 in /  1023.9 hPa SW 0.2 mph /  0.3 km/h 1.2 mph /  1.9 km/h 88 % 0.00 in /  0 mm
06:36 52.3 °F /  11.3 °C 48.9 °F /  9.4 °C 30.24 in /  1023.9 hPa Calm   1.2 mph /  1.9 km/h 88 % 0.00 in /  0 mm
06:41 52.3 °F /  11.3 °C 48.9 °F /  9.4 °C 30.24 in /  1023.9 hPa Calm     88 % 0.00 in /  0 mm
06:46 52.3 °F /  11.3 °C 48.9 °F /  9.4 °C 30.24 in /  1023.9 hPa Calm     88 % 0.00 in /  0 mm
06:51 52.2 °F /  11.2 °C 48.8 °F /  9.3 °C 30.24 in /  1023.9 hPa Calm     88 % 0.00 in /  0 mm
06:56 52.2 °F /  11.2 °C 48.8 °F /  9.3 °C 30.24 in /  1023.9 hPa Calm     88 % 0.00 in /  0 mm
07:06 52.2 °F /  11.2 °C 48.8 °F /  9.3 °C 30.24 in /  1023.9 hPa Calm     88 % 0.00 in /  0 mm
07:11 52.2 °F /  11.2 °C 48.8 °F /  9.3 °C 30.24 in /  1023.9 hPa Calm     88 % 0.00 in /  0 mm
07:16 52.1 °F /  11.2 °C 48.7 °F /  9.3 °C 30.24 in /  1023.9 hPa Calm   1.2 mph /  1.9 km/h 88 % 0.00 in /  0 mm
07:21 52.2 °F /  11.2 °C 48.8 °F /  9.3 °C 30.26 in /  1024.6 hPa SW 0.2 mph /  0.3 km/h 1.2 mph /  1.9 km/h 88 % 0.00 in /  0 mm
07:26 52.2 °F /  11.2 °C 48.8 °F /  9.3 °C 30.24 in /  1023.9 hPa SW 0.1 mph /  0.2 km/h 1.2 mph /  1.9 km/h 88 % 0.00 in /  0 mm
07:31 52.3 °F /  11.3 °C 48.9 °F /  9.4 °C 30.27 in /  1024.9 hPa Calm   1.2 mph /  1.9 km/h 88 % 0.00 in /  0 mm
07:37 52.3 °F /  11.3 °C 48.9 °F /  9.4 °C 30.24 in /  1023.9 hPa WSW 0.2 mph /  0.3 km/h 1.2 mph /  1.9 km/h 88 % 0.00 in /  0 mm
07:42 52.5 °F /  11.4 °C 49.4 °F /  9.7 °C 30.24 in /  1023.9 hPa Calm     89 % 0.00 in /  0 mm
07:47 52.6 °F /  11.4 °C 49.4 °F /  9.7 °C 30.24 in /  1023.9 hPa Calm   1.0 mph /  1.6 km/h 89 % 0.00 in /  0 mm
07:52 52.8 °F /  11.6 °C 49.3 °F /  9.6 °C 30.24 in /  1023.9 hPa WSW 0.1 mph /  0.2 km/h 1.2 mph /  1.9 km/h 88 % 0.00 in /  0 mm
07:57 53.0 °F /  11.7 °C 49.5 °F /  9.7 °C 30.27 in /  1024.9 hPa Calm   1.2 mph /  1.9 km/h 88 % 0.00 in /  0 mm
08:02 53.2 °F /  11.8 °C 49.7 °F /  9.8 °C 30.26 in /  1024.6 hPa WSW 0.1 mph /  0.2 km/h 2.3 mph /  3.7 km/h 88 % 0.00 in /  0 mm
08:07 53.4 °F /  11.9 °C 49.6 °F /  9.8 °C 30.27 in /  1024.9 hPa WSW 0.2 mph /  0.3 km/h 1.2 mph /  1.9 km/h 87 % 0.00 in /  0 mm
08:12 53.5 °F /  11.9 °C 49.7 °F /  9.8 °C 30.24 in /  1023.9 hPa WSW 0.3 mph /  0.5 km/h 1.2 mph /  1.9 km/h 87 % 0.00 in /  0 mm
08:17 53.7 °F /  12.1 °C 49.9 °F /  9.9 °C 30.24 in /  1023.9 hPa WSW 0.3 mph /  0.5 km/h 2.3 mph /  3.7 km/h 87 % 0.00 in /  0 mm
08:22 53.8 °F /  12.1 °C 50.0 °F /  10 °C 30.24 in /  1023.9 hPa WSW 0.3 mph /  0.5 km/h 2.0 mph /  3.2 km/h 87 % 0.00 in /  0 mm
08:27 53.9 °F /  12.2 °C 50.1 °F /  10.1 °C 30.27 in /  1024.9 hPa Calm     87 % 0.00 in /  0 mm
08:32 54.1 °F /  12.3 °C 50.0 °F /  10 °C 30.27 in /  1024.9 hPa Calm   1.2 mph /  1.9 km/h 86 % 0.00 in /  0 mm
08:37 54.3 °F /  12.4 °C 50.2 °F /  10.1 °C 30.27 in /  1024.9 hPa WSW 2.2 mph /  3.5 km/h 3.5 mph /  5.6 km/h 86 % 0.00 in /  0 mm
08:42 54.6 °F /  12.6 °C 50.2 °F /  10.1 °C 30.27 in /  1024.9 hPa SSW 0.4 mph /  0.6 km/h 3.5 mph /  5.6 km/h 85 % 0.00 in /  0 mm
08:47 54.8 °F /  12.7 °C 50.4 °F /  10.2 °C 30.27 in /  1024.9 hPa SW 2.6 mph /  4.2 km/h 4.0 mph /  6.4 km/h 85 % 0.00 in /  0 mm
08:52 55.2 °F /  12.9 °C 50.1 °F /  10.1 °C 30.27 in /  1024.9 hPa WSW 1.7 mph /  2.7 km/h 3.0 mph /  4.8 km/h 83 % 0.00 in /  0 mm
08:57 55.7 °F /  13.2 °C 50.6 °F /  10.3 °C 30.27 in /  1024.9 hPa SSW 3.9 mph /  6.3 km/h 5.8 mph /  9.3 km/h 83 % 0.00 in /  0 mm
09:02 56.0 °F /  13.3 °C 50.6 °F /  10.3 °C 30.27 in /  1024.9 hPa SW 3.6 mph /  5.8 km/h 5.8 mph /  9.3 km/h 82 % 0.00 in /  0 mm
09:07 56.3 °F /  13.5 °C 50.9 °F /  10.5 °C 30.27 in /  1024.9 hPa SSW 2.7 mph /  4.3 km/h 4.6 mph /  7.4 km/h 82 % 0.00 in /  0 mm
09:12 56.7 °F /  13.7 °C 50.9 °F /  10.5 °C 30.27 in /  1024.9 hPa WSW 1.0 mph /  1.6 km/h 2.0 mph /  3.2 km/h 81 % 0.00 in /  0 mm
09:17 57.0 °F /  13.9 °C 51.2 °F /  10.7 °C 30.27 in /  1024.9 hPa WSW 0.3 mph /  0.5 km/h 3.5 mph /  5.6 km/h 81 % 0.00 in /  0 mm
09:22 57.3 °F /  14.1 °C 51.5 °F /  10.8 °C 30.27 in /  1024.9 hPa SW 2.7 mph /  4.3 km/h 4.6 mph /  7.4 km/h 81 % 0.00 in /  0 mm
09:27 57.6 °F /  14.2 °C 51.5 °F /  10.8 °C 30.27 in /  1024.9 hPa WSW 2.3 mph /  3.7 km/h 3.5 mph /  5.6 km/h 80 % 0.00 in /  0 mm
09:32 58.0 °F /  14.4 °C 51.5 °F /  10.8 °C 30.24 in /  1023.9 hPa SW 2.9 mph /  4.7 km/h 3.5 mph /  5.6 km/h 79 % 0.00 in /  0 mm
09:38 58.4 °F /  14.7 °C 51.2 °F /  10.7 °C 30.27 in /  1024.9 hPa SW 3.0 mph /  4.8 km/h 4.6 mph /  7.4 km/h 77 % 0.00 in /  0 mm
09:43 58.7 °F /  14.8 °C 51.5 °F /  10.8 °C 30.27 in /  1024.9 hPa SSW 2.5 mph /  4 km/h 4.6 mph /  7.4 km/h 77 % 0.00 in /  0 mm
09:48 59.1 °F /  15.1 °C 51.5 °F /  10.8 °C 30.25 in /  1024.3 hPa SW 2.3 mph /  3.7 km/h 4.0 mph /  6.4 km/h 76 % 0.00 in /  0 mm
09:53 59.5 °F /  15.3 °C 51.6 °F /  10.9 °C 30.25 in /  1024.3 hPa SSW 2.9 mph /  4.7 km/h 7.0 mph /  11.3 km/h 75 % 0.00 in /  0 mm
09:58 60.0 °F /  15.6 °C 51.7 °F /  10.9 °C 30.25 in /  1024.3 hPa WSW 2.5 mph /  4 km/h 5.8 mph /  9.3 km/h 74 % 0.00 in /  0 mm
10:03 60.7 °F /  15.9 °C 52.0 °F /  11.1 °C 30.25 in /  1024.3 hPa SW 3.9 mph /  6.3 km/h 6.9 mph /  11.1 km/h 73 % 0.00 in /  0 mm
10:08 61.4 °F /  16.3 °C 51.5 °F /  10.8 °C 30.24 in /  1023.9 hPa WSW 3.7 mph /  6 km/h 6.9 mph /  11.1 km/h 70 % 0.00 in /  0 mm
10:13 62.0 °F /  16.7 °C 51.7 °F /  10.9 °C 30.24 in /  1023.9 hPa SSW 1.1 mph /  1.8 km/h 6.9 mph /  11.1 km/h 69 % 0.00 in /  0 mm
10:18 62.4 °F /  16.9 °C 51.7 °F /  10.9 °C 30.23 in /  1023.6 hPa SW 2.5 mph /  4 km/h 6.9 mph /  11.1 km/h 68 % 0.00 in /  0 mm
10:23 62.8 °F /  17.1 °C 51.7 °F /  10.9 °C 30.24 in /  1023.9 hPa SSW 2.3 mph /  3.7 km/h 5.0 mph /  8 km/h 67 % 0.00 in /  0 mm
10:28 63.0 °F /  17.2 °C 52.3 °F /  11.3 °C 30.23 in /  1023.6 hPa SSW 1.1 mph /  1.8 km/h 3.5 mph /  5.6 km/h 68 % 0.00 in /  0 mm
10:33 63.3 °F /  17.4 °C 51.7 °F /  10.9 °C 30.23 in /  1023.6 hPa SW 0.8 mph /  1.3 km/h 5.8 mph /  9.3 km/h 66 % 0.00 in /  0 mm
10:38 63.5 °F /  17.5 °C 51.9 °F /  11.1 °C 30.23 in /  1023.6 hPa WSW 3.6 mph /  5.8 km/h 8.1 mph /  13 km/h 66 % 0.00 in /  0 mm
10:43 63.7 °F /  17.6 °C 52.1 °F /  11.2 °C 30.23 in /  1023.6 hPa SSW 3.3 mph /  5.3 km/h 7.0 mph /  11.3 km/h 66 % 0.00 in /  0 mm
10:48 63.9 °F /  17.7 °C 51.5 °F /  10.8 °C 30.23 in /  1023.6 hPa SW 1.3 mph /  2.1 km/h 8.1 mph /  13 km/h 64 % 0.00 in /  0 mm
10:53 64.1 °F /  17.8 °C 51.7 °F /  10.9 °C 30.22 in /  1023.2 hPa SW 1.5 mph /  2.4 km/h 8.1 mph /  13 km/h 64 % 0.00 in /  0 mm
10:58 64.4 °F /  18 °C 51.5 °F /  10.8 °C 30.23 in /  1023.6 hPa SSW 2.6 mph /  4.2 km/h 4.6 mph /  7.4 km/h 63 % 0.00 in /  0 mm
11:03 64.7 °F /  18.2 °C 50.9 °F /  10.5 °C 30.22 in /  1023.2 hPa West 4.4 mph /  7.1 km/h 9.2 mph /  14.8 km/h 61 % 0.00 in /  0 mm
11:08 65.0 °F /  18.3 °C 51.2 °F /  10.7 °C 30.22 in /  1023.2 hPa SSW 5.6 mph /  9 km/h 7.0 mph /  11.3 km/h 61 % 0.00 in /  0 mm
11:14 65.4 °F /  18.6 °C 51.6 °F /  10.9 °C 30.21 in /  1022.9 hPa SW 5.6 mph /  9 km/h 9.2 mph /  14.8 km/h 61 % 0.00 in /  0 mm
11:19 65.9 °F /  18.8 °C 52.1 °F /  11.2 °C 30.22 in /  1023.2 hPa WNW 3.8 mph /  6.1 km/h 8.1 mph /  13 km/h 61 % 0.00 in /  0 mm
11:24 66.7 °F /  19.3 °C 51.9 °F /  11.1 °C 30.22 in /  1023.2 hPa SSW 5.0 mph /  8 km/h 11.5 mph /  18.5 km/h 59 % 0.00 in /  0 mm
11:29 67.5 °F /  19.7 °C 51.2 °F /  10.7 °C 30.22 in /  1023.2 hPa WSW 4.6 mph /  7.4 km/h 11.5 mph /  18.5 km/h 56 % 0.00 in /  0 mm
11:39 69.0 °F /  20.6 °C 50.6 °F /  10.3 °C 30.21 in /  1022.9 hPa West 8.2 mph /  13.2 km/h 13.8 mph /  22.2 km/h 52 % 0.00 in /  0 mm
11:44 69.6 °F /  20.9 °C 52.2 °F /  11.2 °C 30.21 in /  1022.9 hPa South 2.5 mph /  4 km/h 5.8 mph /  9.3 km/h 54 % 0.00 in /  0 mm
11:49 70.1 °F /  21.2 °C 52.2 °F /  11.2 °C 30.21 in /  1022.9 hPa WSW 6.6 mph /  10.6 km/h 11.0 mph /  17.7 km/h 53 % 0.00 in /  0 mm
11:54 70.6 °F /  21.4 °C 52.1 °F /  11.2 °C 30.21 in /  1022.9 hPa WSW 6.8 mph /  10.9 km/h 10.4 mph /  16.7 km/h 52 % 0.00 in /  0 mm
11:59 71.2 °F /  21.8 °C 53.2 °F /  11.8 °C 30.20 in /  1022.6 hPa SSW 6.5 mph /  10.5 km/h 10.4 mph /  16.7 km/h 53 % 0.00 in /  0 mm
12:04 71.6 °F /  22 °C 52.0 °F /  11.1 °C 30.21 in /  1022.9 hPa WSW 6.1 mph /  9.8 km/h 10.0 mph /  16.1 km/h 50 % 0.00 in /  0 mm
12:06 71.7 °F /  22.1 °C 52.1 °F /  11.2 °C 30.20 in /  1022.6 hPa SSW 3.9 mph /  6.3 km/h 8.1 mph /  13 km/h 50 % 0.00 in /  0 mm
12:11 72.0 °F /  22.2 °C 51.8 °F /  11 °C 30.19 in /  1022.2 hPa WSW 4.7 mph /  7.6 km/h 8.0 mph /  12.9 km/h 49 % 0.00 in /  0 mm
12:17 72.2 °F /  22.3 °C 52.0 °F /  11.1 °C 30.19 in /  1022.2 hPa South 2.6 mph /  4.2 km/h 9.2 mph /  14.8 km/h 49 % 0.00 in /  0 mm
12:22 72.5 °F /  22.5 °C 51.1 °F /  10.6 °C 30.19 in /  1022.2 hPa SSW 4.1 mph /  6.6 km/h 5.8 mph /  9.3 km/h 47 % 0.00 in /  0 mm
12:27 72.6 °F /  22.6 °C 51.2 °F /  10.7 °C 30.19 in /  1022.2 hPa SW 5.4 mph /  8.7 km/h 11.5 mph /  18.5 km/h 47 % 0.00 in /  0 mm
12:32 72.5 °F /  22.5 °C 50.5 °F /  10.3 °C 30.19 in /  1022.2 hPa WSW 4.1 mph /  6.6 km/h 11.5 mph /  18.5 km/h 46 % 0.00 in /  0 mm
12:37 72.5 °F /  22.5 °C 51.7 °F /  10.9 °C 30.18 in /  1021.9 hPa SSW 4.7 mph /  7.6 km/h 11.5 mph /  18.5 km/h 48 % 0.00 in /  0 mm
12:42 72.5 °F /  22.5 °C 51.1 °F /  10.6 °C 30.18 in /  1021.9 hPa WSW 2.3 mph /  3.7 km/h 5.8 mph /  9.3 km/h 47 % 0.00 in /  0 mm
12:47 72.6 °F /  22.6 °C 51.8 °F /  11 °C 30.18 in /  1021.9 hPa South 4.4 mph /  7.1 km/h 9.2 mph /  14.8 km/h 48 % 0.00 in /  0 mm
12:52 72.8 °F /  22.7 °C 53.6 °F /  12 °C 30.18 in /  1021.9 hPa SSW 3.9 mph /  6.3 km/h 10.4 mph /  16.7 km/h 51 % 0.00 in /  0 mm
12:57 73.0 °F /  22.8 °C 51.0 °F /  10.6 °C 30.17 in /  1021.6 hPa South 1.4 mph /  2.3 km/h 4.6 mph /  7.4 km/h 46 % 0.00 in /  0 mm
13:02 73.1 °F /  22.8 °C 52.2 °F /  11.2 °C 30.16 in /  1021.2 hPa SE 3.7 mph /  6 km/h 5.8 mph /  9.3 km/h 48 % 0.00 in /  0 mm
13:07 73.4 °F /  23 °C 51.9 °F /  11.1 °C 30.16 in /  1021.2 hPa South 3.0 mph /  4.8 km/h 6.0 mph /  9.7 km/h 47 % 0.00 in /  0 mm
13:12 73.5 °F /  23.1 °C 50.2 °F /  10.1 °C 30.16 in /  1021.2 hPa South 5.7 mph /  9.2 km/h 9.2 mph /  14.8 km/h 44 % 0.00 in /  0 mm
13:17 73.6 °F /  23.1 °C 50.3 °F /  10.2 °C 30.15 in /  1020.9 hPa SSE 1.2 mph /  1.9 km/h 5.0 mph /  8 km/h 44 % 0.00 in /  0 mm
13:22 73.7 °F /  23.2 °C 52.2 °F /  11.2 °C 30.15 in /  1020.9 hPa WSW 1.4 mph /  2.3 km/h 3.0 mph /  4.8 km/h 47 % 0.00 in /  0 mm
13:27 73.9 °F /  23.3 °C 51.8 °F /  11 °C 30.15 in /  1020.9 hPa SSW 3.5 mph /  5.6 km/h 9.2 mph /  14.8 km/h 46 % 0.00 in /  0 mm
13:32 74.0 °F /  23.3 °C 51.3 °F /  10.7 °C 30.15 in /  1020.9 hPa SSW 1.2 mph /  1.9 km/h 3.0 mph /  4.8 km/h 45 % 0.00 in /  0 mm
13:37 74.0 °F /  23.3 °C 49.4 °F /  9.7 °C 30.15 in /  1020.9 hPa SE 2.5 mph /  4 km/h 5.8 mph /  9.3 km/h 42 % 0.00 in /  0 mm
13:42 74.0 °F /  23.3 °C 50.7 °F /  10.4 °C 30.15 in /  1020.9 hPa SSE 0.5 mph /  0.8 km/h 2.3 mph /  3.7 km/h 44 % 0.00 in /  0 mm
13:47 74.0 °F /  23.3 °C 52.5 °F /  11.4 °C 30.14 in /  1020.5 hPa SSW 2.1 mph /  3.4 km/h 6.9 mph /  11.1 km/h 47 % 0.00 in /  0 mm
13:52 74.1 °F /  23.4 °C 52.6 °F /  11.4 °C 30.14 in /  1020.5 hPa SW 1.7 mph /  2.7 km/h 5.8 mph /  9.3 km/h 47 % 0.00 in /  0 mm
13:57 74.0 °F /  23.3 °C 51.9 °F /  11.1 °C 30.14 in /  1020.5 hPa SSW 1.5 mph /  2.4 km/h 3.5 mph /  5.6 km/h 46 % 0.00 in /  0 mm
14:02 74.0 °F /  23.3 °C 51.9 °F /  11.1 °C 30.17 in /  1021.6 hPa SSE 3.6 mph /  5.8 km/h 6.9 mph /  11.1 km/h 46 % 0.00 in /  0 mm
14:07 74.0 °F /  23.3 °C 51.3 °F /  10.7 °C 30.14 in /  1020.5 hPa SW 1.7 mph /  2.7 km/h 9.0 mph /  14.5 km/h 45 % 0.00 in /  0 mm
14:12 74.0 °F /  23.3 °C 50.7 °F /  10.4 °C 30.13 in /  1020.2 hPa SW 1.6 mph /  2.6 km/h 3.5 mph /  5.6 km/h 44 % 0.00 in /  0 mm
14:18 74.0 °F /  23.3 °C 51.9 °F /  11.1 °C 30.13 in /  1020.2 hPa WSW 2.5 mph /  4 km/h 11.5 mph /  18.5 km/h 46 % 0.00 in /  0 mm
14:23 73.8 °F /  23.2 °C 51.1 °F /  10.6 °C 30.12 in /  1019.9 hPa SW 5.4 mph /  8.7 km/h 11.5 mph /  18.5 km/h 45 % 0.00 in /  0 mm
14:28 73.8 °F /  23.2 °C 51.1 °F /  10.6 °C 30.12 in /  1019.9 hPa SW 2.4 mph /  3.9 km/h 6.0 mph /  9.7 km/h 45 % 0.00 in /  0 mm
14:33 73.7 °F /  23.2 °C 49.8 °F /  9.9 °C 30.12 in /  1019.9 hPa SW 4.8 mph /  7.7 km/h 7.0 mph /  11.3 km/h 43 % 0.00 in /  0 mm
14:38 73.6 °F /  23.1 °C 50.3 °F /  10.2 °C 30.14 in /  1020.5 hPa SW 2.4 mph /  3.9 km/h 6.9 mph /  11.1 km/h 44 % 0.00 in /  0 mm
14:43 73.4 °F /  23 °C 50.8 °F /  10.4 °C 30.11 in /  1019.5 hPa WSW 0.7 mph /  1.1 km/h 2.3 mph /  3.7 km/h 45 % 0.00 in /  0 mm
14:48 73.4 °F /  23 °C 51.4 °F /  10.8 °C 30.11 in /  1019.5 hPa WSW 4.2 mph /  6.8 km/h 6.9 mph /  11.1 km/h 46 % 0.00 in /  0 mm
14:53 73.3 °F /  22.9 °C 51.3 °F /  10.7 °C 30.10 in /  1019.2 hPa SSE 1.5 mph /  2.4 km/h 6.9 mph /  11.1 km/h 46 % 0.00 in /  0 mm
14:58 73.1 °F /  22.8 °C 51.7 °F /  10.9 °C 30.11 in /  1019.5 hPa SSW 1.6 mph /  2.6 km/h 4.6 mph /  7.4 km/h 47 % 0.00 in /  0 mm
15:03 72.9 °F /  22.7 °C 52.1 °F /  11.2 °C 30.11 in /  1019.5 hPa East 0.2 mph /  0.3 km/h 3.5 mph /  5.6 km/h 48 % 0.00 in /  0 mm
15:14 72.5 °F /  22.5 °C 51.7 °F /  10.9 °C 30.11 in /  1019.5 hPa WSW 2.9 mph /  4.7 km/h 5.8 mph /  9.3 km/h 48 % 0.00 in /  0 mm
15:19 72.2 °F /  22.3 °C 52.5 °F /  11.4 °C 30.11 in /  1019.5 hPa SSW 3.0 mph /  4.8 km/h 5.0 mph /  8 km/h 50 % 0.00 in /  0 mm
15:24 71.8 °F /  22.1 °C 51.6 °F /  10.9 °C 30.11 in /  1019.5 hPa SSW 1.8 mph /  2.9 km/h 6.9 mph /  11.1 km/h 49 % 0.00 in /  0 mm
15:29 71.5 °F /  21.9 °C 52.4 °F /  11.3 °C 30.11 in /  1019.5 hPa SSW 2.7 mph /  4.3 km/h 3.5 mph /  5.6 km/h 51 % 0.00 in /  0 mm
15:34 71.1 °F /  21.7 °C 52.0 °F /  11.1 °C 30.10 in /  1019.2 hPa WSW 1.2 mph /  1.9 km/h 3.5 mph /  5.6 km/h 51 % 0.00 in /  0 mm
15:39 70.8 °F /  21.6 °C 51.8 °F /  11 °C 30.11 in /  1019.5 hPa SSW 3.4 mph /  5.5 km/h 4.6 mph /  7.4 km/h 51 % 0.00 in /  0 mm
15:44 70.4 °F /  21.3 °C 51.4 °F /  10.8 °C 30.10 in /  1019.2 hPa SE 3.0 mph /  4.8 km/h 5.8 mph /  9.3 km/h 51 % 0.00 in /  0 mm
15:49 69.9 °F /  21.1 °C 52.0 °F /  11.1 °C 30.10 in /  1019.2 hPa SSW 4.2 mph /  6.8 km/h 10.4 mph /  16.7 km/h 53 % 0.00 in /  0 mm
15:54 69.6 °F /  20.9 °C 51.2 °F /  10.7 °C 30.09 in /  1018.8 hPa South 1.2 mph /  1.9 km/h 3.5 mph /  5.6 km/h 52 % 0.00 in /  0 mm
15:59 69.3 °F /  20.7 °C 51.9 °F /  11.1 °C 30.09 in /  1018.8 hPa SSW 0.1 mph /  0.2 km/h 1.2 mph /  1.9 km/h 54 % 0.00 in /  0 mm
16:04 69.0 °F /  20.6 °C 51.7 °F /  10.9 °C 30.09 in /  1018.8 hPa SW 4.2 mph /  6.8 km/h 6.9 mph /  11.1 km/h 54 % 0.00 in /  0 mm
16:09 68.8 °F /  20.4 °C 52.0 °F /  11.1 °C 30.09 in /  1018.8 hPa SSW 5.3 mph /  8.5 km/h 7.0 mph /  11.3 km/h 55 % 0.00 in /  0 mm
16:14 68.6 °F /  20.3 °C 51.8 °F /  11 °C 30.09 in /  1018.8 hPa SSW 2.0 mph /  3.2 km/h 5.0 mph /  8 km/h 55 % 0.00 in /  0 mm
16:19 68.3 °F /  20.2 °C 51.5 °F /  10.8 °C 30.08 in /  1018.5 hPa South 0.5 mph /  0.8 km/h 2.3 mph /  3.7 km/h 55 % 0.00 in /  0 mm
16:24 68.1 °F /  20.1 °C 51.8 °F /  11 °C 30.08 in /  1018.5 hPa SSW 1.6 mph /  2.6 km/h 5.8 mph /  9.3 km/h 56 % 0.00 in /  0 mm
16:29 68.0 °F /  20 °C 52.2 °F /  11.2 °C 30.08 in /  1018.5 hPa SSW 2.6 mph /  4.2 km/h 3.5 mph /  5.6 km/h 57 % 0.00 in /  0 mm
16:34 67.8 °F /  19.9 °C 52.5 °F /  11.4 °C 30.08 in /  1018.5 hPa SW 0.8 mph /  1.3 km/h 3.0 mph /  4.8 km/h 58 % 0.00 in /  0 mm
16:39 67.7 °F /  19.8 °C 52.9 °F /  11.6 °C 30.07 in /  1018.2 hPa WSW 0.2 mph /  0.3 km/h 2.0 mph /  3.2 km/h 59 % 0.00 in /  0 mm
16:45 67.5 °F /  19.7 °C 53.1 °F /  11.7 °C 30.07 in /  1018.2 hPa SSW 3.1 mph /  5 km/h 4.0 mph /  6.4 km/h 60 % 0.00 in /  0 mm
16:50 67.3 °F /  19.6 °C 53.4 °F /  11.9 °C 30.07 in /  1018.2 hPa SSW 3.1 mph /  5 km/h 6.9 mph /  11.1 km/h 61 % 0.00 in /  0 mm
16:55 67.1 °F /  19.5 °C 53.6 °F /  12 °C 30.07 in /  1018.2 hPa SSW 0.8 mph /  1.3 km/h 4.6 mph /  7.4 km/h 62 % 0.00 in /  0 mm
16:59 67.0 °F /  19.4 °C 54.0 °F /  12.2 °C 30.10 in /  1019.2 hPa SW 2.4 mph /  3.9 km/h 3.5 mph /  5.6 km/h 63 % 0.00 in /  0 mm
17:04 66.8 °F /  19.3 °C 53.8 °F /  12.1 °C 30.10 in /  1019.2 hPa SW 1.2 mph /  1.9 km/h 3.0 mph /  4.8 km/h 63 % 0.00 in /  0 mm
17:09 66.6 °F /  19.2 °C 54.0 °F /  12.2 °C 30.10 in /  1019.2 hPa SSE 0.2 mph /  0.3 km/h 1.0 mph /  1.6 km/h 64 % 0.00 in /  0 mm
17:14 66.4 °F /  19.1 °C 54.3 °F /  12.4 °C 30.10 in /  1019.2 hPa SSW 1.1 mph /  1.8 km/h 2.3 mph /  3.7 km/h 65 % 0.00 in /  0 mm
17:19 66.2 °F /  19 °C 54.1 °F /  12.3 °C 30.10 in /  1019.2 hPa SSW 0.7 mph /  1.1 km/h 4.6 mph /  7.4 km/h 65 % 0.00 in /  0 mm
17:24 66.0 °F /  18.9 °C 54.3 °F /  12.4 °C 30.10 in /  1019.2 hPa SSE 1.4 mph /  2.3 km/h 3.5 mph /  5.6 km/h 66 % 0.00 in /  0 mm
17:29 65.8 °F /  18.8 °C 54.1 °F /  12.3 °C 30.10 in /  1019.2 hPa ENE 0.5 mph /  0.8 km/h 5.8 mph /  9.3 km/h 66 % 0.00 in /  0 mm
17:34 65.7 °F /  18.7 °C 54.0 °F /  12.2 °C 30.10 in /  1019.2 hPa SSW 0.7 mph /  1.1 km/h 2.3 mph /  3.7 km/h 66 % 0.00 in /  0 mm
17:40 65.4 °F /  18.6 °C 54.2 °F /  12.3 °C 30.07 in /  1018.2 hPa South 0.1 mph /  0.2 km/h 3.5 mph /  5.6 km/h 67 % 0.00 in /  0 mm
17:45 65.2 °F /  18.4 °C 54.0 °F /  12.2 °C 30.07 in /  1018.2 hPa SSE 0.6 mph /  1 km/h 3.5 mph /  5.6 km/h 67 % 0.00 in /  0 mm
17:50 65.0 °F /  18.3 °C 54.2 °F /  12.3 °C 30.07 in /  1018.2 hPa South 0.7 mph /  1.1 km/h 2.3 mph /  3.7 km/h 68 % 0.00 in /  0 mm
17:55 64.9 °F /  18.3 °C 54.1 °F /  12.3 °C 30.07 in /  1018.2 hPa South 0.2 mph /  0.3 km/h 2.3 mph /  3.7 km/h 68 % 0.00 in /  0 mm
18:00 64.7 °F /  18.2 °C 54.3 °F /  12.4 °C 30.07 in /  1018.2 hPa South 0.4 mph /  0.6 km/h 2.3 mph /  3.7 km/h 69 % 0.00 in /  0 mm
18:05 64.4 °F /  18 °C 54.4 °F /  12.4 °C 30.06 in /  1017.8 hPa SSW 0.1 mph /  0.2 km/h 2.3 mph /  3.7 km/h 70 % 0.00 in /  0 mm
18:10 64.2 °F /  17.9 °C 54.6 °F /  12.6 °C 30.06 in /  1017.8 hPa SSW 0.7 mph /  1.1 km/h 2.3 mph /  3.7 km/h 71 % 0.00 in /  0 mm
18:15 63.9 °F /  17.7 °C 54.7 °F /  12.6 °C 30.06 in /  1017.8 hPa SSW 0.5 mph /  0.8 km/h 2.3 mph /  3.7 km/h 72 % 0.00 in /  0 mm
18:20 63.7 °F /  17.6 °C 54.5 °F /  12.5 °C 30.06 in /  1017.8 hPa SSW 0.2 mph /  0.3 km/h 1.2 mph /  1.9 km/h 72 % 0.00 in /  0 mm
18:25 63.5 °F /  17.5 °C 54.7 °F /  12.6 °C 30.06 in /  1017.8 hPa SSW 1.6 mph /  2.6 km/h 3.5 mph /  5.6 km/h 73 % 0.00 in /  0 mm
18:30 63.2 °F /  17.3 °C 55.1 °F /  12.8 °C 30.06 in /  1017.8 hPa SW 0.3 mph /  0.5 km/h 2.3 mph /  3.7 km/h 75 % 0.00 in /  0 mm
18:35 62.9 °F /  17.2 °C 55.2 °F /  12.9 °C 30.06 in /  1017.8 hPa WSW 0.8 mph /  1.3 km/h 3.5 mph /  5.6 km/h 76 % 0.00 in /  0 mm
18:40 62.7 °F /  17.1 °C 55.0 °F /  12.8 °C 30.10 in /  1019.2 hPa WSW 1.4 mph /  2.3 km/h 3.5 mph /  5.6 km/h 76 % 0.00 in /  0 mm
18:45 62.5 °F /  16.9 °C 55.5 °F /  13.1 °C 30.07 in /  1018.2 hPa SW 0.8 mph /  1.3 km/h 3.5 mph /  5.6 km/h 78 % 0.00 in /  0 mm
18:50 62.3 °F /  16.8 °C 55.4 °F /  13 °C 30.09 in /  1018.8 hPa SW 0.4 mph /  0.6 km/h 2.0 mph /  3.2 km/h 78 % 0.00 in /  0 mm
18:55 62.1 °F /  16.7 °C 55.5 °F /  13.1 °C 30.10 in /  1019.2 hPa SW 0.3 mph /  0.5 km/h 1.2 mph /  1.9 km/h 79 % 0.00 in /  0 mm
19:00 62.0 °F /  16.7 °C 55.4 °F /  13 °C 30.09 in /  1018.8 hPa SW 2.2 mph /  3.5 km/h 5.0 mph /  8 km/h 79 % 0.00 in /  0 mm
19:05 61.8 °F /  16.6 °C 55.6 °F /  13.1 °C 30.09 in /  1018.8 hPa SW 0.9 mph /  1.4 km/h 3.5 mph /  5.6 km/h 80 % 0.00 in /  0 mm
19:11 61.7 °F /  16.5 °C 55.8 °F /  13.2 °C 30.10 in /  1019.2 hPa SSW 0.3 mph /  0.5 km/h 3.5 mph /  5.6 km/h 81 % 0.00 in /  0 mm
19:16 61.6 °F /  16.4 °C 55.7 °F /  13.2 °C 30.09 in /  1018.8 hPa SW 1.0 mph /  1.6 km/h 3.0 mph /  4.8 km/h 81 % 0.00 in /  0 mm
19:21 61.5 °F /  16.4 °C 55.6 °F /  13.1 °C 30.09 in /  1018.8 hPa Calm   3.0 mph /  4.8 km/h 81 % 0.00 in /  0 mm
19:26 61.4 °F /  16.3 °C 55.9 °F /  13.3 °C 30.09 in /  1018.8 hPa Calm   3.0 mph /  4.8 km/h 82 % 0.00 in /  0 mm
19:31 61.3 °F /  16.3 °C 56.1 °F /  13.4 °C 30.09 in /  1018.8 hPa SW 1.0 mph /  1.6 km/h 3.0 mph /  4.8 km/h 83 % 0.00 in /  0 mm
19:36 61.2 °F /  16.2 °C 56.0 °F /  13.3 °C 30.09 in /  1018.8 hPa Calm   4.0 mph /  6.4 km/h 83 % 0.00 in /  0 mm
19:41 61.1 °F /  16.2 °C 55.9 °F /  13.3 °C 30.09 in /  1018.8 hPa Calm   1.0 mph /  1.6 km/h 83 % 0.00 in /  0 mm
19:46 61.1 °F /  16.2 °C 55.9 °F /  13.3 °C 30.09 in /  1018.8 hPa Calm   4.0 mph /  6.4 km/h 83 % 0.00 in /  0 mm
19:51 61.0 °F /  16.1 °C 55.8 °F /  13.2 °C 30.09 in /  1018.8 hPa Calm   3.0 mph /  4.8 km/h 83 % 0.00 in /  0 mm
19:56 61.0 °F /  16.1 °C 56.1 °F /  13.4 °C 30.09 in /  1018.8 hPa Calm   2.0 mph /  3.2 km/h 84 % 0.00 in /  0 mm
20:01 60.9 °F /  16.1 °C 56.0 °F /  13.3 °C 30.09 in /  1018.8 hPa Calm   1.2 mph /  1.9 km/h 84 % 0.00 in /  0 mm
20:06 60.8 °F /  16 °C 55.9 °F /  13.3 °C 30.10 in /  1019.2 hPa WSW 0.1 mph /  0.2 km/h 1.2 mph /  1.9 km/h 84 % 0.00 in /  0 mm
20:11 60.7 °F /  15.9 °C 55.8 °F /  13.2 °C 30.09 in /  1018.8 hPa Calm   1.2 mph /  1.9 km/h 84 % 0.00 in /  0 mm
20:16 60.6 °F /  15.9 °C 55.7 °F /  13.2 °C 30.09 in /  1018.8 hPa WSW 0.1 mph /  0.2 km/h 1.2 mph /  1.9 km/h 84 % 0.00 in /  0 mm
20:21 60.5 °F /  15.8 °C 55.6 °F /  13.1 °C 30.09 in /  1018.8 hPa Calm     84 % 0.00 in /  0 mm
20:26 60.4 °F /  15.8 °C 55.5 °F /  13.1 °C 30.09 in /  1018.8 hPa WSW 0.6 mph /  1 km/h 2.0 mph /  3.2 km/h 84 % 0.00 in /  0 mm
20:31 60.3 °F /  15.7 °C 55.8 °F /  13.2 °C 30.09 in /  1018.8 hPa WSW 0.2 mph /  0.3 km/h 1.2 mph /  1.9 km/h 85 % 0.00 in /  0 mm
20:36 60.2 °F /  15.7 °C 55.7 °F /  13.2 °C 30.09 in /  1018.8 hPa WSW 0.1 mph /  0.2 km/h 1.2 mph /  1.9 km/h 85 % 0.00 in /  0 mm
20:41 60.2 °F /  15.7 °C 55.7 °F /  13.2 °C 30.09 in /  1018.8 hPa WSW 0.1 mph /  0.2 km/h 1.2 mph /  1.9 km/h 85 % 0.00 in /  0 mm
20:46 60.1 °F /  15.6 °C 55.2 °F /  12.9 °C 30.09 in /  1018.8 hPa WSW 0.6 mph /  1 km/h 2.3 mph /  3.7 km/h 84 % 0.00 in /  0 mm
20:51 60.0 °F /  15.6 °C 55.2 °F /  12.9 °C 30.09 in /  1018.8 hPa WSW 0.2 mph /  0.3 km/h 2.0 mph /  3.2 km/h 84 % 0.00 in /  0 mm
20:56 60.0 °F /  15.6 °C 55.2 °F /  12.9 °C 30.07 in /  1018.2 hPa WSW 0.4 mph /  0.6 km/h 2.3 mph /  3.7 km/h 84 % 0.00 in /  0 mm
21:01 59.9 °F /  15.5 °C 55.1 °F /  12.8 °C 30.09 in /  1018.8 hPa WSW 1.3 mph /  2.1 km/h 3.5 mph /  5.6 km/h 84 % 0.00 in /  0 mm
21:06 59.8 °F /  15.4 °C 55.0 °F /  12.8 °C 30.07 in /  1018.2 hPa WSW 0.2 mph /  0.3 km/h 2.3 mph /  3.7 km/h 84 % 0.00 in /  0 mm
21:11 59.6 °F /  15.3 °C 54.4 °F /  12.4 °C 30.08 in /  1018.5 hPa WSW 1.8 mph /  2.9 km/h 3.0 mph /  4.8 km/h 83 % 0.00 in /  0 mm
21:16 59.5 °F /  15.3 °C 54.3 °F /  12.4 °C 30.08 in /  1018.5 hPa SW 1.2 mph /  1.9 km/h 3.5 mph /  5.6 km/h 83 % 0.00 in /  0 mm
21:21 59.4 °F /  15.2 °C 53.9 °F /  12.2 °C 30.08 in /  1018.5 hPa SW 1.0 mph /  1.6 km/h 3.5 mph /  5.6 km/h 82 % 0.00 in /  0 mm
21:26 59.4 °F /  15.2 °C 53.9 °F /  12.2 °C 30.08 in /  1018.5 hPa SW 1.4 mph /  2.3 km/h 3.5 mph /  5.6 km/h 82 % 0.00 in /  0 mm
21:31 59.3 °F /  15.2 °C 53.8 °F /  12.1 °C 30.08 in /  1018.5 hPa SW 0.8 mph /  1.3 km/h 2.3 mph /  3.7 km/h 82 % 0.00 in /  0 mm
21:36 59.3 °F /  15.2 °C 53.5 °F /  11.9 °C 30.08 in /  1018.5 hPa WSW 1.3 mph /  2.1 km/h 4.0 mph /  6.4 km/h 81 % 0.00 in /  0 mm
21:41 59.2 °F /  15.1 °C 53.4 °F /  11.9 °C 30.08 in /  1018.5 hPa SW 0.2 mph /  0.3 km/h 1.2 mph /  1.9 km/h 81 % 0.00 in /  0 mm
21:46 59.2 °F /  15.1 °C 53.4 °F /  11.9 °C 30.08 in /  1018.5 hPa SSW 1.4 mph /  2.3 km/h 3.5 mph /  5.6 km/h 81 % 0.00 in /  0 mm
21:51 59.1 °F /  15.1 °C 52.9 °F /  11.6 °C 30.08 in /  1018.5 hPa Calm   2.3 mph /  3.7 km/h 80 % 0.00 in /  0 mm
21:57 59.1 °F /  15.1 °C 52.6 °F /  11.4 °C 30.08 in /  1018.5 hPa WSW 0.7 mph /  1.1 km/h 3.5 mph /  5.6 km/h 79 % 0.00 in /  0 mm
22:02 59.0 °F /  15 °C 52.5 °F /  11.4 °C 30.08 in /  1018.5 hPa SW 0.2 mph /  0.3 km/h 1.2 mph /  1.9 km/h 79 % 0.00 in /  0 mm
22:07 59.0 °F /  15 °C 52.1 °F /  11.2 °C 30.08 in /  1018.5 hPa SW 0.4 mph /  0.6 km/h 2.3 mph /  3.7 km/h 78 % 0.00 in /  0 mm
22:12 59.0 °F /  15 °C 52.1 °F /  11.2 °C 30.08 in /  1018.5 hPa SSW 0.3 mph /  0.5 km/h 2.3 mph /  3.7 km/h 78 % 0.00 in /  0 mm
22:17 58.9 °F /  14.9 °C 52.1 °F /  11.2 °C 30.08 in /  1018.5 hPa Calm   1.2 mph /  1.9 km/h 78 % 0.00 in /  0 mm
22:22 58.9 °F /  14.9 °C 51.7 °F /  10.9 °C 30.08 in /  1018.5 hPa SW 0.9 mph /  1.4 km/h 4.6 mph /  7.4 km/h 77 % 0.00 in /  0 mm
22:27 58.9 °F /  14.9 °C 51.7 °F /  10.9 °C 30.07 in /  1018.2 hPa SSW 1.3 mph /  2.1 km/h 3.5 mph /  5.6 km/h 77 % 0.00 in /  0 mm
22:32 58.9 °F /  14.9 °C 51.3 °F /  10.7 °C 30.09 in /  1018.8 hPa SSW 0.7 mph /  1.1 km/h 4.6 mph /  7.4 km/h 76 % 0.00 in /  0 mm
22:37 58.9 °F /  14.9 °C 51.3 °F /  10.7 °C 30.08 in /  1018.5 hPa West 1.5 mph /  2.4 km/h 4.0 mph /  6.4 km/h 76 % 0.00 in /  0 mm
22:42 58.9 °F /  14.9 °C 51.3 °F /  10.7 °C 30.10 in /  1019.2 hPa SSW 0.7 mph /  1.1 km/h 4.6 mph /  7.4 km/h 76 % 0.00 in /  0 mm
22:47 58.9 °F /  14.9 °C 51.3 °F /  10.7 °C 30.08 in /  1018.5 hPa SW 2.2 mph /  3.5 km/h 3.5 mph /  5.6 km/h 76 % 0.00 in /  0 mm
22:52 59.0 °F /  15 °C 51.4 °F /  10.8 °C 30.10 in /  1019.2 hPa SW 1.0 mph /  1.6 km/h 3.5 mph /  5.6 km/h 76 % 0.00 in /  0 mm
22:57 59.0 °F /  15 °C 51.1 °F /  10.6 °C 30.10 in /  1019.2 hPa SW 1.3 mph /  2.1 km/h 3.0 mph /  4.8 km/h 75 % 0.00 in /  0 mm
23:02 59.0 °F /  15 °C 51.1 °F /  10.6 °C 30.09 in /  1018.8 hPa SW 3.4 mph /  5.5 km/h 6.9 mph /  11.1 km/h 75 % 0.00 in /  0 mm
23:07 59.1 °F /  15.1 °C 51.2 °F /  10.7 °C 30.07 in /  1018.2 hPa SW 3.2 mph /  5.1 km/h 4.0 mph /  6.4 km/h 75 % 0.00 in /  0 mm
23:13 59.3 °F /  15.2 °C 51.4 °F /  10.8 °C 30.07 in /  1018.2 hPa SW 1.3 mph /  2.1 km/h 3.0 mph /  4.8 km/h 75 % 0.00 in /  0 mm
23:18 59.3 °F /  15.2 °C 51.4 °F /  10.8 °C 30.06 in /  1017.8 hPa Calm   2.3 mph /  3.7 km/h 75 % 0.00 in /  0 mm
23:23 59.3 °F /  15.2 °C 51.0 °F /  10.6 °C 30.07 in /  1018.2 hPa WSW 2.8 mph /  4.5 km/h 5.8 mph /  9.3 km/h 74 % 0.00 in /  0 mm
23:26 59.3 °F /  15.2 °C 51.0 °F /  10.6 °C 30.06 in /  1017.8 hPa WSW 2.4 mph /  3.9 km/h 3.5 mph /  5.6 km/h 74 % 0.00 in /  0 mm
23:29 59.4 °F /  15.2 °C 51.1 °F /  10.6 °C 30.06 in /  1017.8 hPa SW 2.3 mph /  3.7 km/h 8.1 mph /  13 km/h 74 % 0.00 in /  0 mm
23:34 59.4 °F /  15.2 °C 51.1 °F /  10.6 °C 30.06 in /  1017.8 hPa SSW 2.5 mph /  4 km/h 3.5 mph /  5.6 km/h 74 % 0.00 in /  0 mm
23:39 59.4 °F /  15.2 °C 51.1 °F /  10.6 °C 30.06 in /  1017.8 hPa SSW 2.4 mph /  3.9 km/h 4.6 mph /  7.4 km/h 74 % 0.00 in /  0 mm
23:44 59.4 °F /  15.2 °C 51.1 °F /  10.6 °C 30.06 in /  1017.8 hPa WSW 0.5 mph /  0.8 km/h 2.3 mph /  3.7 km/h 74 % 0.00 in /  0 mm
23:49 59.4 °F /  15.2 °C 51.1 °F /  10.6 °C 30.06 in /  1017.8 hPa SSW 2.4 mph /  3.9 km/h 3.5 mph /  5.6 km/h 74 % 0.00 in /  0 mm
23:54 59.4 °F /  15.2 °C 51.1 °F /  10.6 °C 30.06 in /  1017.8 hPa Calm   1.2 mph /  1.9 km/h 74 % 0.00 in /  0 mm
Crab Meadow Weather
Compliments of Weather Underground - 3 mb

Script developed by  Jim McMurry - jmcmurry@mwt.net Adapted for the template by  Wim van der Kuil - Leuven-Template.eu

Weather Terms: Flood Warning (river flood)- A warning for specific communities or areas along a river where flooding is imminent or occurring. Flood warnings normally give specific crest forecasts.